Back to catalog

MKA PN2

RELEK

AliveScienceSSO
NORAD 40070·PAYLOAD·🇷🇺 Russia

Launched Jul 8, 2014 from Baikonur Cosmodrome

Loading…

Next Passes (next 24 hours)

TLE

FreshSource: Space-Track

Epoch: Sep 14, 2026, 09:10 UTC

1 40070U 14037B   26257.38260130  .00000235  00000-0  58015-4 0  9994
2 40070  98.0810 232.4260 0130644 151.0051 209.8487 14.55732814646069

Track MKA PN2 in real time with AllMySat

Download on the App Store